This demonstration page uses our WeatherBlox Daily Observations layout. Learn more.

Left ArrowRight Arrow

30.21309, -93.2044

Hourly Observations for February 15, 2022

Temp ( °F °C ) Dew Point ( °F °C ) Humidity (%) Winds ( mph kmh ) Pressure ( in mb ) Visibility ( mi km ) Precip ( " mm )
12:15 am 00:15 Clear with Mist and Fog 42 5.6 41 4.8 95 95 Calm 30.34 1027 3 5 0.00 0.00
12:35 am 00:35 Clear 43 6.2 42 5.3 94 94 Calm 30.34 1027 7 11 0.00 0.00
12:55 am 00:55 Clear 43 5.9 40 4.7 92 92 Calm 30.34 1027 7 11 0.00 0.00
1:15 am 01:15 Mostly Cloudy with Mist and Fog 38 3.4 36 2.2 92 92 Calm 30.33 1027 2 2 0.00 0.00
1:35 am 01:35 Clear 39 4.1 38 3.1 93 93 Calm 30.33 1027 10 16 0.00 0.00
1:55 am 01:55 Clear 41 5 39 3.7 91 91 Calm 30.33 1027 10 16 0.00 0.00
2:15 am 02:15 Clear with Mist and Fog 38 3.2 36 2.1 93 93 Calm 30.33 1027 7 11 0.00 0.00
2:35 am 02:35 Clear with Mist and Fog 37 3 36 2.2 95 95 Calm 30.32 1027 2 3 0.00 0.00
2:55 am 02:55 Mostly Cloudy with Mist and Fog 37 2.6 35 1.9 95 95 ENE 3 6 30.32 1027 1 1 0.00 0.00
3:15 am 03:15 Mostly Cloudy with Mist and Fog 36 2.4 35 1.7 95 95 ENE 3 6 30.32 1027 1 2 0.00 0.00
3:35 am 03:35 Clear with Mist and Fog 36 2.4 35 1.7 95 95 ENE 3 6 30.32 1027 5 8 0.00 0.00
3:55 am 03:55 Clear with Mist and Fog 36 2.3 35 1.7 96 96 ENE 5 7 30.32 1027 4 6 0.00 0.00
4:15 am 04:15 Clear with Mist and Fog 37 2.6 35 1.9 95 95 ENE 3 6 30.32 1027 2 3 0.00 0.00
4:35 am 04:35 undefined 35 1.8 34 1.1 95 95 E 5 7 30.32 1027 N/A 0.00 0.00
4:55 am 04:55 Clear with Mist and Fog 36 2.2 35 1.5 95 95 E 3 6 30.33 1027 4 6 0.00 0.00
5:15 am 05:15 Clear with Mist and Fog 36 2.1 35 1.4 95 95 E 5 7 30.33 1027 4 6 0.00 0.00
5:35 am 05:35 Mostly Cloudy with Mist and Fog 37 2.7 36 2.1 96 96 E 5 7 30.33 1027 1 2 0.00 0.00
6:00 am 06:00 Mostly Clear 39 4 37 3 93 93 ENE 5 7 30.33 1027 10 16 0.00 0.00
6:52 am 06:52 Mostly Clear with Mist and Fog 37 3 37 3 100 100 E 5 7 30.34 1027 2 3 0.00 0.00
7:50 am 07:50 Mostly Sunny 45 7 45 7 100 100 E 5 7 30.36 1028 7 11 0.00 0.00
8:51 am 08:51 Mostly Sunny 54 12 46 8 77 77 ESE 9 15 30.37 1028 10 16 0.00 0.00
9:55 am 09:55 Mostly Sunny 61 16 43 6 52 52 ESE 13 20 30.37 1028 10 16 0.00 0.00
10:59 am 10:59 Mostly Sunny 66 19 45 7 46 46 SE 10 17 30.38 1029 10 16 0.00 0.00
11:50 am 11:50 Partly Cloudy 66 19 45 7 46 46 S 13 20 30.36 1028 10 16 0.00 0.00
12:50 pm 12:50 Mostly Sunny 70 21 45 7 40 40 SE 20 31 30.32 1027 10 16 0.00 0.00
1:55 pm 13:55 Partly Cloudy 68 20 45 7 43 43 SSE 17 28 30.29 1026 10 16 0.00 0.00
2:55 pm 14:55 Partly Cloudy 68 20 46 8 46 46 SSE 17 28 30.26 1025 10 16 0.00 0.00
3:55 pm 15:55 Mostly Cloudy 66 19 46 8 49 49 SSE 20 31 30.25 1024 10 16 0.00 0.00
4:50 pm 16:50 Mostly Cloudy 64 18 48 9 56 56 SSE 16 26 30.24 1024 10 16 0.00 0.00
5:47 pm 17:47 Mostly Cloudy 63 17 48 9 59 59 SE 17 28 30.23 1024 10 16 0.00 0.00
6:50 pm 18:50 Mostly Cloudy 61 16 48 9 63 63 SSE 15 24 30.23 1024 10 16 0.00 0.00
7:45 pm 19:45 Mostly Cloudy 61 16 50 10 68 68 SE 13 20 30.23 1024 10 16 0.00 0.00
8:52 pm 20:52 Mostly Cloudy 61 16 52 11 72 72 SSE 15 24 30.24 1024 10 16 0.00 0.00
9:55 pm 21:55 Mostly Cloudy 61 16 52 11 72 72 SSE 13 20 30.24 1024 10 16 0.00 0.00
10:15 pm 22:15 Cloudy 60 15.7 51 10.8 73 73 SSE 14 22 30.24 1024 10 16 0.00 0.00
10:35 pm 22:35 Cloudy 60 15.7 52 10.9 73 73 SSE 15 24 30.24 1024 10 16 0.00 0.00
10:55 pm 22:55 Cloudy 60 15.7 51 10.8 73 73 SSE 17 28 30.23 1024 10 16 0.00 0.00
11:15 pm 23:15 Cloudy 60 15.5 51 10.8 74 74 SSE 15 24 30.23 1024 10 16 0.00 0.00
11:35 pm 23:35 Cloudy 60 15.5 51 10.8 74 74 SSE 17 28 30.22 1023 10 16 0.00 0.00
11:55 pm 23:55 Cloudy 60 15.5 52 10.9 74 74 SSE 18 30 30.22 1023 10 16 0.00 0.00

Powered by AerisWeather